Location: Tierra del Sol
(32.6128°N, 116.3319°W)
Time: 06:10:41
(UTC-07:00)

Vanguard 2 - Pass Details

Date: 26 April 2018
Orbit: 554 x 2938 km, 32.9° (Epoch: 17 September)

Event Time Altitude Azimuth Distance (km) Brightness Sun altitude
Rises 02:42:41 0° 281° (W) 3,750 - -35.7°
Reaches altitude 10° 02:45:56 10° 274° (W) 2,481 - -35.3°
Maximum altitude 02:51:02 40° 206° (SSW) 969 - -34.6°
Drops below altitude 10° 02:54:53 10° 135° (SE) 1,871 - -34.1°
Sets 02:57:02 0° 127° (SE) 2,715 - -33.8°
